Weather History for McGregor, MN

Change the Weather History Date:

Wednesday, March 27, 2013

  Actual Average (KAIT) Record (KAIT)
Temperature  
Mean Temperature 32 °F -  
Max Temperature 42 °F 44 °F 66 °F (2012)
Min Temperature 23 °F 23 °F -1 °F (1964)
Degree Days  
Heating Degree Days 32    
Moisture  
Dew Point 21 °F    
Average Humidity 62    
Maximum Humidity 86    
Minimum Humidity 31    
Precipitation  
Precipitation 0.00 in - - ()
Sea Level Pressure  
Sea Level Pressure 30.29 in    
Wind  
Wind Speed 0 mph (NW)    
Max Wind Speed 4 mph    
Max Gust Speed -    
Visibility 10 miles    
Events      
Averages and records for this station are not official NWS values.
T = Trace of Precipitation, MM = Missing Value Source: NWS Daily Summary

Daily Weather History Graph

Daily Weather History Graph

Search for Another Location

Airport:

Trip Planner

Search our weather history database for the weather conditions in past years. The results will help you decide how hot, cold, wet, or windy it might be!

Date:

Astronomy

Mar. 27, 2013 Rise Set
Actual Time 7:01 AM CDT 7:35 PM CDT
Civil Twilight 6:31 AM CDT 8:06 PM CDT
Nautical Twilight 5:55 AM CDT 8:42 PM CDT
Astronomical Twilight 5:18 AM CDT 9:19 PM CDT
Moon 8:25 PM CDT (3/27) 6:50 AM CDT (3/27)
Length of Visible Light 13h 34m
Length of Day
12h 33m
Full, 100% of the Moon is Illuminated
Mar 27
Full
Apr 2
Last Quarter
Apr 10
New
Apr 18
First Quarter
Apr 25
Full

Hourly Weather History & Observations

Time (CDT) Temp. Windchill Dew Point Humidity Pressure Visibility Wind Dir Wind Speed Gust Speed Precip Events Conditions
12:13 AM 32.0 °F - 26.6 °F 80% 30.27 in 10.0 mi Calm Calm - N/A   Overcast
12:33 AM 32.0 °F - 26.6 °F 80% 30.27 in 10.0 mi Calm Calm - N/A   Overcast
12:47 AM 32.0 °F - 26.6 °F 80% 30.27 in 10.0 mi Calm Calm - N/A   Overcast
1:13 AM 32.0 °F - 24.8 °F 75% 30.27 in 10.0 mi Calm Calm - N/A   Overcast
1:31 AM 32.0 °F - 24.8 °F 75% 30.27 in 10.0 mi Calm Calm - N/A   Overcast
1:45 AM 32.0 °F - 24.8 °F 75% 30.27 in 10.0 mi Calm Calm - N/A   Overcast
2:12 AM 32.0 °F - 26.6 °F 80% 30.28 in 10.0 mi Calm Calm - N/A   Overcast
2:31 AM 32.0 °F - 26.6 °F 80% 30.28 in 10.0 mi Calm Calm - N/A   Overcast
2:53 AM 32.0 °F - 26.6 °F 80% 30.27 in 10.0 mi Calm Calm - N/A   Overcast
3:10 AM 30.2 °F - 26.6 °F 86% 30.27 in 10.0 mi Calm Calm - N/A   Overcast
3:33 AM 32.0 °F - 26.6 °F 80% 30.27 in 10.0 mi Calm Calm - N/A   Overcast
3:53 AM 30.2 °F - 26.6 °F 86% 30.27 in 10.0 mi Calm Calm - N/A   Overcast
4:12 AM 30.2 °F - 26.6 °F 86% 30.27 in 10.0 mi Calm Calm - N/A   Overcast
4:33 AM 30.2 °F - 23.0 °F 75% 30.27 in 10.0 mi Calm Calm - N/A   Overcast
4:53 AM 30.2 °F - 24.8 °F 80% 30.27 in 10.0 mi Calm Calm - N/A   Overcast
5:11 AM 30.2 °F - 24.8 °F 80% 30.27 in 10.0 mi Calm Calm - N/A   Overcast
5:33 AM 30.2 °F - 24.8 °F 80% 30.27 in 10.0 mi Calm Calm - N/A   Overcast
5:53 AM 30.2 °F - 26.6 °F 86% 30.28 in 10.0 mi Calm Calm - N/A   Overcast
6:13 AM 30.2 °F - 24.8 °F 80% 30.28 in 10.0 mi Calm Calm - N/A   Overcast
6:31 AM 30.2 °F - 24.8 °F 80% 30.28 in 10.0 mi Calm Calm - N/A   Overcast
6:53 AM 30.2 °F - 24.8 °F 80% 30.28 in 10.0 mi Calm Calm - N/A   Overcast
7:13 AM 30.2 °F - 24.8 °F 80% 30.29 in 10.0 mi Calm Calm - N/A   Overcast
7:33 AM 30.2 °F - 24.8 °F 80% 30.29 in 10.0 mi Calm Calm - N/A   Overcast
7:53 AM 30.2 °F - 24.8 °F 80% 30.29 in 10.0 mi Calm Calm - N/A   Overcast
8:12 AM 30.2 °F - 24.8 °F 80% 30.30 in 10.0 mi Calm Calm - N/A   Overcast
8:33 AM 30.2 °F - 23.0 °F 75% 30.30 in 10.0 mi Calm Calm - N/A   Overcast
8:53 AM 32.0 °F - 23.0 °F 69% 30.30 in 10.0 mi Calm Calm - N/A   Overcast
9:12 AM 32.0 °F - 23.0 °F 69% 30.30 in 10.0 mi Calm Calm - N/A   Overcast
9:33 AM 32.0 °F - 23.0 °F 69% 30.30 in 10.0 mi Calm Calm - N/A   Overcast
9:52 AM 32.0 °F - 23.0 °F 69% 30.30 in 10.0 mi Calm Calm - N/A   Overcast
10:11 AM 33.8 °F - 23.0 °F 65% 30.31 in 10.0 mi Calm Calm - N/A   Overcast
10:32 AM 35.6 °F - 21.2 °F 56% 30.31 in 10.0 mi Calm Calm - N/A   Overcast
10:53 AM 37.4 °F - 19.4 °F 48% 30.31 in 10.0 mi Calm Calm - N/A   Overcast
11:11 AM 37.4 °F - 17.6 °F 45% 30.31 in 10.0 mi Calm Calm - N/A   Overcast
11:32 AM 37.4 °F 34.9 °F 17.6 °F 45% 30.31 in 10.0 mi South 3.5 mph - N/A   Overcast
11:53 AM 39.2 °F - 17.6 °F 42% 30.31 in 10.0 mi Calm Calm - N/A   Mostly Cloudy
12:13 PM 41.0 °F - 17.6 °F 39% 30.31 in 10.0 mi Calm Calm - N/A   Scattered Clouds
12:33 PM 39.2 °F - 17.6 °F 42% 30.31 in 10.0 mi Calm Calm - N/A   Clear
12:53 PM 41.0 °F - 15.8 °F 36% 30.31 in 10.0 mi Calm Calm - N/A   Clear
1:13 PM 41.0 °F - 15.8 °F 36% 30.31 in 10.0 mi Calm Calm - N/A   Clear
1:33 PM 42.8 °F - 14.0 °F 31% 30.31 in 10.0 mi Calm Calm - N/A   Clear
1:52 PM 41.0 °F - 15.8 °F 36% 30.30 in 10.0 mi Calm Calm - N/A   Clear
2:13 PM 41.0 °F - 15.8 °F 36% 30.30 in 10.0 mi Calm Calm - N/A   Clear
2:33 PM 41.0 °F 39.0 °F 14.0 °F 33% 30.30 in 10.0 mi North 3.5 mph - N/A   Clear
2:53 PM 41.0 °F - 15.8 °F 36% 30.29 in 10.0 mi Calm Calm - N/A   Clear
3:13 PM 41.0 °F - 17.6 °F 39% 30.29 in 10.0 mi Calm Calm - N/A   Clear
3:33 PM 41.0 °F - 15.8 °F 36% 30.29 in 10.0 mi Calm Calm - N/A   Clear
3:53 PM 42.8 °F - 15.8 °F 34% 30.28 in 10.0 mi Calm Calm - N/A   Clear
4:13 PM 41.0 °F 39.0 °F 17.6 °F 39% 30.28 in 10.0 mi North 3.5 mph - N/A   Clear
4:33 PM 41.0 °F - 17.6 °F 39% 30.28 in 10.0 mi Calm Calm - N/A   Clear
4:53 PM 41.0 °F - 15.8 °F 36% 30.28 in 10.0 mi Calm Calm - N/A   Clear
5:13 PM 41.0 °F - 17.6 °F 39% 30.28 in 10.0 mi Calm Calm - N/A   Clear
5:33 PM 41.0 °F 39.0 °F 15.8 °F 36% 30.27 in 10.0 mi North 3.5 mph - N/A   Clear
5:53 PM 39.2 °F - 17.6 °F 42% 30.27 in 10.0 mi Calm Calm - N/A   Clear
6:13 PM 41.0 °F - 14.0 °F 33% 30.27 in 10.0 mi Calm Calm - N/A   Clear
6:33 PM 39.2 °F - 14.0 °F 36% 30.27 in 10.0 mi Calm Calm - N/A   Clear
6:53 PM 39.2 °F - 14.0 °F 36% 30.27 in 10.0 mi Calm Calm - N/A   Clear
7:13 PM 39.2 °F - 17.6 °F 42% 30.27 in 10.0 mi Calm Calm - N/A   Clear
7:31 PM 37.4 °F - 19.4 °F 48% 30.27 in 10.0 mi Calm Calm - N/A   Clear
7:53 PM 33.8 °F - 21.2 °F 60% 30.28 in 10.0 mi Calm Calm - N/A   Clear
8:13 PM 33.8 °F - 21.2 °F 60% 30.28 in 10.0 mi Calm Calm - N/A   Clear
8:31 PM 32.0 °F - 21.2 °F 64% 30.28 in 10.0 mi Calm Calm - N/A   Clear
8:53 PM 30.2 °F - 19.4 °F 64% 30.28 in 10.0 mi Calm Calm - N/A   Clear
9:13 PM 32.0 °F - 21.2 °F 64% 30.28 in 10.0 mi Calm Calm - N/A   Clear
9:32 PM 30.2 °F - 21.2 °F 69% 30.29 in 10.0 mi Calm Calm - N/A   Clear
9:51 PM 28.4 °F - 21.2 °F 74% 30.29 in 10.0 mi Calm Calm - N/A   Clear
10:13 PM 28.4 °F 24.6 °F 19.4 °F 69% 30.29 in 10.0 mi SW 3.5 mph - N/A   Clear
10:33 PM 28.4 °F - 19.4 °F 69% 30.29 in 10.0 mi Calm Calm - N/A   Clear
10:53 PM 24.8 °F - 17.6 °F 74% 30.29 in 10.0 mi Calm Calm - N/A   Clear
11:13 PM 23.0 °F - 17.6 °F 80% 30.29 in 10.0 mi Calm Calm - N/A   Clear
11:33 PM 23.0 °F - 19.4 °F 86% 30.29 in 10.0 mi Calm Calm - N/A   Clear
11:52 PM 23.0 °F - 17.6 °F 80% 30.29 in 10.0 mi Calm Calm - N/A   Clear